Tracking 28790 objects as of 19-Apr-2024
HD Live streaming from Space Station
objects crossing your sky now

TIROS 6

Track TIROS 6 now!
10-day predictions
TIROS 6 is classified as:


NORAD ID: 397
Int'l Code: 1962-047A
Perigee: 591.6 km
Apogee: 609.2 km
Inclination: 58.3 °
Period: 96.5 minutes
Semi major axis: 6971 km
RCS: 0.807 m2 (medium)
Launch date: September 18, 1962
Source: United States (US)
Launch site: AIR FORCE EASTERN TEST RANGE (AFETR)
Your satellite tracking list
Your tracking list is empty




NASA's NSSDC Master Catalog

Two Line Element Set (TLE):
1 00397U 62047A   24109.30565533  .00004555  00000-0  47306-3 0  9996
2 00397  58.3049  65.8160 0012593 124.3161 235.9079 14.91495908294273
Source of the keplerian elements: AFSPC